"Pseudo-MPEC" for CARQW22

Created 2024 Sep 8 8:22:06 UT using Find_Orb

Click here for an explanation of pseudo-MPECs

 
 Astrometry: 
     CARQW22*1C2024 09 07.35017001 39 20.050+12 40 41.00   ~97A7       VNEOCPG96
     CARQW22 1C2024 09 07.35536201 39 32.910+12 39 36.90   ~97A7       VNEOCPG96
     CARQW22 1C2024 09 07.36055001 39 45.490+12 38 34.90   ~97A7 20.73GVNEOCPG96
     CARQW22 KC2024 09 07.39534101 41 11.087+12 31 24.71   ~97AM 20.34GVNEOCPI52
     CARQW22 KC2024 09 07.39685801 41 14.824+12 31 06.20   ~97AM 20.22GVNEOCPI52
     CARQW22 KC2024 09 07.39837201 41 18.564+12 30 47.27   ~97AM 20.11GVNEOCPI52
     CARQW22 KC2024 09 07.39988201 41 22.240+12 30 28.66   ~97AM 20.27GVNEOCPI52
     CARQW22  C2024 09 07.42072301 42 12.726+12 26 01.88   ~97Aq 19.5 GVNEOCPH01
     CARQW22  C2024 09 07.42511801 42 23.555+12 25 06.64   ~97Aq 19.8 GVNEOCPH01
     CARQW22  C2024 09 07.43405301 42 45.629+12 23 14.11   ~97Aq 20.0 GVNEOCPH01
     CARQW22  C2024 09 07.44102901 43 02.868+12 21 46.08   ~97Aq 20.1 GVNEOCPH01
     CARQW22 KC2024 09 07.45639701 43 41.714+12 18 38.23   ~97CM 19.78GVNEOCPI52
     CARQW22 KC2024 09 07.45791001 43 45.440+12 18 18.86   ~97CM 20.65GVNEOCPI52
     CARQW22 KC2024 09 07.45942201 43 49.235+12 17 59.64   ~97CM 20.39GVNEOCPI52
     CARQW22 KB2024 09 07.94820902 05 23.64 +10 27 51.3    ~97Nq       XNEOCPI93
     CARQW22 KB2024 09 07.96095902 05 57.23 +10 24 53.9    ~97Nq 20.3 GXNEOCPI93
     CARQW22 1C2024 09 07.96326 02 06 00.71 +10 24 05.6    ~97NM 20.6 VXNEOCP033
     CARQW22 1C2024 09 07.96376 02 06 01.99 +10 23 58.8    ~97NM 20.9 VXNEOCP033
     CARQW22 1C2024 09 07.96425 02 06 03.29 +10 23 51.7    ~97NM 21.0 VXNEOCP033
     CARQW22 KB2024 09 07.97193002 06 26.10 +10 22 20.4    ~97Nq 20.9 GXNEOCPI93
     CARQW22 1C2024 09 08.11673 02 12 43.14 +09 47 33.2    ~9837 20.7 VXNEOCP033
     CARQW22 1C2024 09 08.11722 02 12 44.45 +09 47 26.0    ~9837 20.9 VXNEOCP033
     CARQW22 1C2024 09 08.11771 02 12 45.74 +09 47 18.8    ~9837 20.8 VXNEOCP033

Station data:
(033) Karl Schwarzschild Observatory, Tautenburg  (N50.980139 E11.711240)
   Germany.  Observer B. Stecklum. 1.34-m f/3 Schmidt + CCD.
(G96) Mt. Lemmon Survey  (N32.442729 W110.788720)  US/Arizona.  Observer E.
   J. Christensen. 1.5-m reflector + 10K CCD.
(H01) Magdalena Ridge Observatory, Socorro  (N33.984833 W107.189333)  US/New
   Mexico.  Observers W. H. Ryan, E. V. Ryan. Measurer W. H. Ryan. 2.4-m
   f/8.9 reflector + CCD.
(I52) Steward Observatory, Mt. Lemmon Station  (N32.442570 W110.788920)
   US/Arizona.  Observers T. A. Pruyne, B. M. Africano, E. J. Christensen, G.
   A. Farneth, D. C. Fuls, A. R. Gibbs, A. D. Grauer, H. Gröller, J. A.
   Johnson, R. A. Kowalski, S. M. Larson, G. J. Leonard, D. Rankin, R. L.
   Seaman, F. C. Shelly, K. W. Wierzchoś. 1.0-m prime focus + CCD.
(I93) St Pardon de Conques  (N44.558670 W0.202960)  France.  Observers F.
   Losse, W. D'Anna. Measurer F. Losse. 0.40-m f/3.7 reflector + CCD.

Orbital elements:  CARQW22
   Perihelion 2024 Oct 10.39058 +/- 0.0419 TT =  9:22:26 (JD 2460593.89058)
Epoch 2024 Sep  8.0 TT = JDT 2460561.5   Earth MOID: 0.0178      AutoNEOCP
M 348.94201348 +/- 0.06             (J2000 ecliptic)
n   0.34139512 +/- 0.00163          Peri.  220.92500 +/- 0.041
a   2.02751699 +/- 0.00646          Node   166.56973 +/- 0.0028
e   0.5339466 +/- 0.00149           Incl.   12.76080 +/- 0.022
P   2.88700                H 26.10  G  0.15   U  8.4
q 0.94493111 +/- 0.000128    Q 3.11010287 +/- 0.0129
From 23 observations 2024 Sept. 7-8 (18.4 hr); mean residual 0".36
Residuals in arcseconds: 
240907 G96  .59-  .16+    240907 H01  .01+  .17-    240907 033  .27+  .06+    
240907 G96  1.1+  .56-    240907 H01  .04+  .15-    240907 033  .21-  .26+    
240907 G96  1.2-  .90+    240907 H01  .15-  .03-    240907 033  .00   .03+    
240907 I52  .33+  .35-    240907 I52  .20-  .17+    240907 I93  .26+  .01-    
240907 I52  .41+  .02-    240907 I52  .53-  .03+    240908 033  .24-  .05-    
240907 I52  .63+  .14-    240907 I52  .17+  .04+    240908 033  .08+  .12-    
240907 I52  .05+  .02+    240907 I93  .30-  .06-    240908 033  .11+  .18-    
240907 H01  .28+  .16-    240907 I93  .03+  .18+    

Ephemerides (geocentric):
Date (UTC) HH   RA             Dec           delta  r     elong  mag " sig PA
---- --------  ------------   ------------  ------ ------ -----  --- --------
2024 09 08 08  02 22 31.234   +08 56 59.17  .03428 1.0295 129.3 20.7 .335  23
2024 09 08 09  02 24 24.667   +08 46 31.25  .03423 1.0293 129.0 20.7 .350  32
2024 09 08 10  02 26 18.256   +08 35 59.67  .03420 1.0291 128.6 20.7 .377  42
2024 09 08 11  02 28 11.985   +08 25 24.56  .03416 1.0289 128.2 20.7 .414  51
2024 09 08 12  02 30 05.838   +08 14 46.03  .03412 1.0287 127.9 20.7 .463  58
2024 09 08 13  02 31 59.801   +08 04 04.21  .03409 1.0285 127.5 20.7 .521  65
2024 09 08 14  02 33 53.858   +07 53 19.24  .03406 1.0283 127.1 20.7 .588  70
2024 09 08 15  02 35 47.993   +07 42 31.24  .03404 1.0281 126.7 20.7 .664  75
2024 09 08 16  02 37 42.191   +07 31 40.37  .03401 1.0279 126.4 20.7 .747  79
2024 09 08 17  02 39 36.436   +07 20 46.75  .03399 1.0277 126.0 20.7 .838  82
2024 09 08 18  02 41 30.712   +07 09 50.53  .03397 1.0275 125.6 20.8 .934  85
2024 09 08 19  02 43 25.003   +06 58 51.85  .03396 1.0273 125.2 20.8 1.04  87
2024 09 08 20  02 45 19.294   +06 47 50.85  .03394 1.0271 124.8 20.8 1.15  89
2024 09 08 21  02 47 13.569   +06 36 47.69  .03393 1.0269 124.4 20.8 1.26  91
2024 09 08 22  02 49 07.812   +06 25 42.51  .03392 1.0267 124.0 20.8 1.38  93
2024 09 08 23  02 51 02.008   +06 14 35.46  .03392 1.0265 123.6 20.8 1.51  94
2024 09 09 00  02 52 56.140   +06 03 26.69  .03392 1.0263 123.3 20.8 1.64  95
2024 09 09 01  02 54 50.193   +05 52 16.36  .03392 1.0261 122.9 20.8 1.77  96
2024 09 09 02  02 56 44.152   +05 41 04.62  .03392 1.0258 122.5 20.8 1.91  97
2024 09 09 03  02 58 38.001   +05 29 51.62  .03392 1.0256 122.1 20.8 2.06  98
2024 09 09 04  03 00 31.725   +05 18 37.52  .03393 1.0254 121.7 20.9 2.20  99
2024 09 09 05  03 02 25.308   +05 07 22.48  .03394 1.0252 121.3 20.9 2.36 100
2024 09 09 06  03 04 18.735   +04 56 06.64  .03396 1.0250 120.9 20.9 2.52 100
2024 09 09 07  03 06 11.991   +04 44 50.17  .03397 1.0248 120.5 20.9 2.68 101
2024 09 09 08  03 08 05.062   +04 33 33.22  .03399 1.0246 120.1 20.9 2.85 101
2024 09 09 09  03 09 57.932   +04 22 15.94  .03401 1.0244 119.7 20.9 3.02 102
2024 09 09 10  03 11 50.587   +04 10 58.49  .03404 1.0242 119.3 20.9 3.19 102
2024 09 09 11  03 13 43.013   +03 59 41.03  .03406 1.0240 118.9 20.9 3.37 103
2024 09 09 12  03 15 35.195   +03 48 23.71  .03409 1.0238 118.5 21.0 3.55 103
2024 09 09 13  03 17 27.120   +03 37 06.67  .03412 1.0236 118.1 21.0 3.74 103
2024 09 09 14  03 19 18.772   +03 25 50.08  .03416 1.0234 117.7 21.0 3.93 104
2024 09 09 15  03 21 10.140   +03 14 34.08  .03419 1.0232 117.3 21.0 4.12 104
2024 09 09 16  03 23 01.209   +03 03 18.81  .03423 1.0230 116.9 21.0 4.32 104
2024 09 09 17  03 24 51.966   +02 52 04.43  .03428 1.0228 116.5 21.0 4.52 105
2024 09 09 18  03 26 42.398   +02 40 51.09  .03432 1.0227 116.1 21.0 4.72 105
2024 09 09 19  03 28 32.493   +02 29 38.92  .03437 1.0225 115.8 21.1 4.93 105
2024 09 09 20  03 30 22.239   +02 18 28.06  .03442 1.0223 115.4 21.1 5.14 105
2024 09 09 21  03 32 11.622   +02 07 18.66  .03447 1.0221 115.0 21.1 5.35 106
2024 09 09 22  03 34 00.631   +01 56 10.85  .03453 1.0219 114.6 21.1 5.56 106
2024 09 09 23  03 35 49.255   +01 45 04.76  .03458 1.0217 114.2 21.1 5.78 106
2024 09 10 00  03 37 37.481   +01 34 00.54  .03464 1.0215 113.8 21.1 6.00 106
2024 09 10 01  03 39 25.300   +01 22 58.30  .03471 1.0213 113.4 21.1 6.22 106
2024 09 10 02  03 41 12.700   +01 11 58.17  .03477 1.0211 113.0 21.2 6.44 107
2024 09 10 03  03 42 59.670   +01 01 00.29  .03484 1.0209 112.6 21.2 6.67 107
2024 09 10 04  03 44 46.201   +00 50 04.76  .03491 1.0207 112.2 21.2 6.89 107
2024 09 10 05  03 46 32.282   +00 39 11.71  .03498 1.0205 111.9 21.2 7.12 107
2024 09 10 06  03 48 17.905   +00 28 21.25  .03505 1.0203 111.5 21.2 7.35 107
2024 09 10 07  03 50 03.059   +00 17 33.50  .03513 1.0201 111.1 21.2 7.58 107